Curtin, Australia

2:30 PM AWST on April 23, 2017 (GMT +0800)
Curtin

Weather History for YCIN - April, 2012

Change the Weather History Date:

Monday, April 23, 2012

  Actual Average Record
Temperature  
Mean Temperature 84 °F -  
Max Temperature 96 °F - - ()
Min Temperature 73 °F - - ()
Cooling Degree Days 20    
Growing Degree Days 34 (Base 50)    
Moisture  
Dew Point 67 °F    
Average Humidity 60    
Maximum Humidity 94    
Minimum Humidity 23    
Precipitation  
Precipitation 0.00 in - - ()
Sea Level Pressure  
Sea Level Pressure 29.81 in    
Wind  
Wind Speed 3 mph ()    
Max Wind Speed 7 mph    
Max Gust Speed -    
T = Trace of Precipitation, MM = Missing Value Source: Averaged Metar Reports

Daily Weather History Graph

Daily Weather History Graph

Search for Another Location

Airport or City:

Trip Planner

Search our weather history database for the weather conditions in past years. The results will help you decide how hot, cold, wet, or windy it might be!

Date:

Astronomy

Apr. 23, 2012 Rise Set
Actual Time 5:55 AM AWST 5:30 PM AWST
Civil Twilight 5:33 AM AWST 5:52 PM AWST
Nautical Twilight 5:07 AM AWST 6:17 PM AWST
Astronomical Twilight 4:42 AM AWST 6:43 PM AWST
Moon 7:18 AM AWST 6:47 PM AWST
Length of Visible Light 12h 18m
Length of Day
11h 34m
Waxing Crescent, 3% of the Moon is Illuminated
Apr 23
Waxing Crescent
Apr 29
First Quarter
May 6
Full
May 13
Last Quarter
May 21
New

Hourly Weather History & Observations

Time (AWST) Temp. Heat Index Dew Point Humidity Pressure Visibility Wind Dir Wind Speed Gust Speed Precip Events Conditions
12:00 AM 78 °F - 70 °F 71% 29.80 in - WSW 3.5 mph - -  
12:00 AM 77.0 °F - 69.8 °F 78% 29.80 in - WSW 3.5 mph - N/A   Unknown
1:00 AM 78.8 °F - 71.6 °F 78% 29.80 in - WSW 4.6 mph - N/A   Unknown
2:00 AM 77.0 °F - 71.6 °F 83% 29.80 in - North 3.5 mph - N/A   Unknown
3:00 AM 75 °F - 70 °F 80% 29.79 in - Calm Calm - -  
3:00 AM 75.2 °F - 69.8 °F 83% 29.80 in - Calm Calm - N/A   Unknown
4:00 AM 75.2 °F - 71.6 °F 89% 29.80 in - Calm Calm - N/A   Unknown
5:00 AM 75.2 °F - 69.8 °F 83% 29.80 in - Calm Calm - N/A   Unknown
6:00 AM 74 °F - 71 °F 88% 29.82 in - NNW 3.5 mph - -  
6:00 AM 73.4 °F - 71.6 °F 94% 29.83 in - NNW 3.5 mph - N/A   Unknown
7:00 AM 77.0 °F - 71.6 °F 83% 29.83 in - Calm Calm - N/A   Unknown
8:00 AM 80.6 °F 83.9 °F 69.8 °F 70% 29.86 in - SW 4.6 mph - N/A   Unknown
9:00 AM 85 °F - 67 °F 46% 29.86 in - South 5.8 mph - -  
9:00 AM 84.2 °F 87.3 °F 68.0 °F 58% 29.86 in - South 5.8 mph - N/A   Unknown
10:00 AM 89.6 °F 90.1 °F 62.6 °F 40% 29.86 in - South 5.8 mph - N/A   Unknown
11:00 AM 91.4 °F 90.7 °F 59.0 °F 34% 29.83 in - South 4.6 mph - N/A   Unknown
12:00 PM 94 °F - 61 °F 24% 29.79 in - SW 5.8 mph - -  
12:00 PM 93.2 °F 93.3 °F 60.8 °F 34% 29.80 in - SW 5.8 mph - N/A   Unknown
1:00 PM 95.0 °F 95.2 °F 60.8 °F 32% 29.77 in - WSW 5.8 mph - N/A   Unknown
2:00 PM 95.0 °F 95.2 °F 60.8 °F 32% 29.77 in - WSW 5.8 mph - N/A   Unknown
3:00 PM 95 °F - 61 °F 23% 29.75 in - SW 3.5 mph - -  
3:00 PM 95.0 °F 95.2 °F 60.8 °F 32% 29.74 in - SW 3.5 mph - N/A   Unknown
4:00 PM 93.2 °F 94.9 °F 64.4 °F 38% 29.74 in - West 6.9 mph - N/A   Unknown
5:00 PM 89.6 °F 91.1 °F 64.4 °F 43% 29.77 in - WSW 4.6 mph - N/A   Unknown
6:00 PM 84 °F - 68 °F 50% 29.78 in - West 1.2 mph - -  
6:00 PM 84.2 °F 87.3 °F 68.0 °F 58% 29.77 in - West 1.2 mph - N/A   Unknown
7:00 PM 80.6 °F 83.2 °F 68.0 °F 65% 29.80 in - West 2.3 mph - N/A   Unknown
8:00 PM 78.8 °F - 68.0 °F 69% 29.83 in - Calm Calm - N/A   Unknown
9:00 PM 79 °F - 69 °F 64% 29.83 in - NW 3.5 mph - -  
9:00 PM 78.8 °F - 69.8 °F 74% 29.83 in - NW 3.5 mph - N/A   Unknown
10:00 PM 80.6 °F 83.9 °F 69.8 °F 70% 29.83 in - WNW 3.5 mph - N/A   Unknown
11:00 PM 78.8 °F - 68.0 °F 69% 29.83 in - WNW 4.6 mph - N/A   Unknown